EW8371 Weather Reports


Display with metric or nautical units.
time (UTC)temp
F
wind
direction
speed
MPH
gust
MPH
rain 1hr
in
rain 24hr
in
rain mn
in
humidity
%
barometer
mb
20260904061531 65 155 0.0 0.0 0.00 0.00 0.00 1 1008.8
20260904060028 65 126 0.0 0.0 0.00 0.00 0.00 1 1009.1
20260904054526 65 126 0.0 0.0 0.00 0.00 0.00 1 1009.4
20260904053029 65 126 0.0 0.0 0.00 0.01 0.00 1 1009.4
20260904051525 65 126 0.0 0.0 0.00 0.01 0.00 1 1009.6
20260904050013 65 126 0.0 0.0 0.00 0.01 0.00 1 1009.6
20260904044508 65 126 0.0 0.0 0.00 0.01 0.00 1 1009.6
20260904043004 65 355 0.0 0.0 0.00 0.01 0.00 1 1009.3
20260904041606 65 355 0.0 0.0 0.00 0.01 0.00 1 1009.3
20260904040054 65 355 0.0 0.0 0.00 0.01 0.00 1 1009.6
20260904034549 65 351 0.0 0.0 0.00 0.01 0.00 1 1009.6
20260904033100 65 350 0.0 0.0 0.00 0.10 0.00 1 1009.7
20260904031540 65 351 0.0 0.0 0.00 0.10 0.00 1 1009.8
20260904030006 66 355 0.0 0.0 0.00 0.10 0.00 1 1009.8
20260904024502 66 275 0.0 0.0 0.00 0.10 0.00 1 1009.9
20260904023054 66 284 0.0 0.0 0.00 0.13 0.00 1 1009.8
20260904021550 67 286 0.0 0.0 0.00 0.13 0.00 1 1010.0
20260904020058 67 348 0.0 0.0 0.00 0.13 0.00 1 1010.4
20260904014610 67 350 0.0 0.0 0.00 0.13 0.00 1 1010.2
20260904013015 67 343 0.0 0.0 0.00 0.13 0.00 1 1010.2
20260904011503 68 355 0.0 0.0 0.00 0.13 0.00 1 1010.2
20260904010100 68 350 0.0 0.0 0.00 0.13 0.00 1 1010.0
20260904004552 68 351 0.0 0.0 0.00 0.13 0.00 1 1009.9
20260904003057 68 164 0.0 0.0 0.00 0.13 0.00 1 1009.8
20260904001543 69 157 0.0 0.0 0.00 0.13 0.00 1 1009.9
20260904000036 69 157 0.0 0.0 0.00 0.13 0.00 1 1009.8
20260903234532 70 163 0.0 0.0 0.00 0.13 0.00 1 1009.6
20260903233027 71 155 0.0 0.0 0.00 0.13 0.00 1 1009.8
20260903231523 71 147 0.0 2.0 0.00 0.13 0.00 1 1009.4
20260903230035 72 269 0.0 0.0 0.00 0.13 0.00 1 1009.4
20260903224512 72 259 0.0 0.0 0.00 0.13 0.00 7 1009.3
20260903223008 73 268 1.0 2.0 0.00 0.13 0.00 8 1009.3
20260903221502 74 23 0.0 2.0 0.00 0.13 0.00 20 1009.3
20260903220029 75 269 0.0 3.0 0.00 0.13 0.00 27 1009.1
20260903214537 77 264 1.0 2.0 0.00 0.13 0.00 45 1009.1
20260903213020 78 292 0.0 3.0 0.00 0.13 0.00 55 1009.1
20260903211511 77 283 0.0 3.0 0.00 0.13 0.00 54 1009.3
20260903210007 78 296 3.0 5.0 0.00 0.13 0.00 56 1009.3
20260903204505 79 321 2.0 8.0 0.00 0.13 0.00 57 1009.4
20260903203029 78 10 1.0 9.0 0.00 0.13 0.00 55 1009.4
20260903201531 79 5 2.0 8.0 0.00 0.13 0.00 53 1009.2
20260903200017 79 5 1.0 5.0 0.00 0.13 0.00 49 1009.3
20260903194513 79 9 3.0 9.0 0.00 0.13 0.00 48 1009.3
20260903193009 78 10 3.0 10.0 0.00 0.13 0.00 42 1009.5
20260903191506 79 9 1.0 8.0 0.00 0.13 0.00 51 1009.6
20260903184528 80 5 5.0 10.0 0.00 0.13 0.00 55 1009.7
20260903183023 79 5 2.0 11.0 0.00 0.13 0.00 44 1009.8
20260903181517 78 10 4.0 11.0 0.00 0.13 0.00 46 1009.9
20260903180034 77 9 1.0 6.0 0.00 0.13 0.00 32 1010.1
20260903174506 77 9 0.0 4.0 0.00 0.13 0.00 21 1010.1
20260903173004 76 9 2.0 7.0 0.00 0.21 0.00 22 1010.4
20260903171558 76 9 1.0 6.0 0.00 0.21 0.00 21 1010.4
20260903170157 76 360 4.0 8.0 0.00 0.21 0.00 26 1010.4
20260903164552 76 9 5.0 9.0 0.00 0.21 0.00 15 1010.4
20260903163045 75 9 1.0 5.0 0.00 0.37 0.00 14 1010.6
20260903161551 76 9 2.0 9.0 0.00 0.37 0.00 23 1010.6
20260903160041 76 186 2.0 12.0 0.00 0.37 0.00 25 1010.8
20260903154529 75 9 2.0 9.0 0.00 0.37 0.00 8 1010.8
20260903153025 74 199 2.0 8.0 0.00 0.37 0.37 1 1011.1
20260903151524 72 155 3.0 7.0 0.00 0.37 0.37 1 1011.3
20260903150023 72 167 3.0 7.0 0.00 0.37 0.37 1 1011.3
20260903144525 71 171 3.0 7.0 0.00 0.37 0.37 1 1011.2
20260903143021 70 154 1.0 3.0 0.00 0.37 0.37 1 1011.1
20260903141551 70 180 2.0 6.0 0.00 0.37 0.37 1 1011.1
20260903140058 69 180 1.0 5.0 0.00 0.37 0.37 1 1011.1
20260903134550 69 213 2.0 5.0 0.00 0.37 0.37 1 1011.0
20260903133048 68 186 2.0 3.0 0.00 0.37 0.37 1 1011.1
20260903131547 68 224 1.0 3.0 0.00 0.37 0.37 1 1011.0
20260903130048 67 223 0.0 5.0 0.00 0.37 0.37 1 1011.3
20260903124543 67 221 0.0 2.0 0.00 0.37 0.37 1 1011.2
20260903123042 67 132 0.0 3.0 0.00 0.37 0.37 1 1011.2
20260903121542 66 153 1.0 4.0 0.00 0.37 0.37 1 1011.4
20260903120046 66 173 0.0 2.0 0.00 0.37 0.37 1 1011.1
20260903114505 66 180 1.0 5.0 0.00 0.37 0.37 1 1011.2
20260903113001 66 157 1.0 3.0 0.00 0.37 0.37 1 1011.2
20260903111554 66 181 0.0 2.0 0.00 0.37 0.37 1 1011.1
20260903110059 66 128 0.0 3.0 0.00 0.37 0.37 1 1011.4
20260903104548 65 151 0.0 0.0 0.00 0.37 0.37 1 1011.3
20260903103041 66 166 0.0 0.0 0.00 0.37 0.37 1 1011.4
20260903101506 65 166 0.0 0.0 0.00 0.37 0.37 1 1011.1
20260903100002 65 152 0.0 0.0 0.00 0.37 0.37 1 1011.0
20260903094556 65 175 0.0 0.0 0.00 0.37 0.37 1 1011.0
20260903093058 65 64 0.0 0.0 0.00 0.37 0.37 1 1010.9
20260903091546 65 64 0.0 0.0 0.00 0.37 0.37 1 1010.8
20260903090047 65 171 0.0 0.0 0.00 0.37 0.37 1 1010.8
20260903084544 65 138 0.0 0.0 0.00 0.37 0.37 1 1010.9
20260903083043 65 137 0.0 0.0 0.00 0.37 0.37 1 1010.9
20260903081543 65 137 0.0 0.0 0.00 0.37 0.37 1 1011.1
20260903080042 65 138 0.0 0.0 0.00 0.37 0.37 1 1011.1
20260903074543 65 138 0.0 0.0 0.00 0.37 0.37 1 1011.0
20260903073038 65 138 0.0 0.0 0.00 0.37 0.37 1 1011.2
20260903071538 65 138 0.0 0.0 0.00 0.37 0.37 1 1011.1
20260903070034 65 171 0.0 2.0 0.00 0.37 0.37 1 1011.0
20260903064529 65 165 0.0 3.0 0.00 0.37 0.37 1 1011.3
20260903063021 65 136 0.0 4.0 0.00 0.37 0.37 1 1010.9